Muncie, IN

2:29 PM EST on February 25, 2017 (GMT -0500)
Delaware County-Johnson

Weather History for KMIE - May, 2013

Change the Weather History Date:

Wednesday, May 15, 2013

  Actual Average Record
Temperature  
Mean Temperature 81 °F 61 °F  
Max Temperature 89 °F 72 °F 90 °F (1982)
Min Temperature 72 °F 51 °F 32 °F (1973)
Degree Days  
Heating Degree Days 0 6  
Month to date heating degree days 55 107  
Since 1 July heating degree days 5338 5699  
Cooling Degree Days 16 2  
Month to date cooling degree days 42 20  
Year to date cooling degree days 55 35  
Growing Degree Days 30 (Base 50)    
Moisture  
Dew Point 56 °F    
Average Humidity 47    
Maximum Humidity 61    
Minimum Humidity 32    
Precipitation  
Precipitation 0.12 in 0.15 in 1.23 in (1974)
Month to date precipitation 0.71 1.97  
Year to date precipitation 13.38 13.13  
Sea Level Pressure  
Sea Level Pressure 29.79 in    
Wind  
Wind Speed 13 mph (WSW)    
Max Wind Speed 25 mph    
Max Gust Speed 33 mph    
Visibility 10 miles    
Events Rain    
T = Trace of Precipitation, MM = Missing Value Source: NWS Daily Summary

Daily Weather History Graph

Daily Weather History Graph

Search for Another Location

Airport or City:

Trip Planner

Search our weather history database for the weather conditions in past years. The results will help you decide how hot, cold, wet, or windy it might be!

Date:

Astronomy

May. 15, 2013 Rise Set
Actual Time 6:25 AM EDT 8:50 PM EDT
Civil Twilight 5:54 AM EDT 9:21 PM EDT
Nautical Twilight 5:16 AM EDT 10:00 PM EDT
Astronomical Twilight 4:34 AM EDT 10:42 PM EDT
Moon 11:00 AM EDT (5/15) 12:36 AM EDT (5/15)
Length of Visible Light 15h 27m
Length of Day
14h 25m
Waxing Crescent, 26% of the Moon is Illuminated
May 15
Waxing Crescent
May 18
First Quarter
May 25
Full
May 31
Last Quarter
Jun 8
New

Hourly Weather History & Observations

Time (EDT) Temp. Heat Index Dew Point Humidity Pressure Visibility Wind Dir Wind Speed Gust Speed Precip Events Conditions
12:53 AM 73.9 °F - 57.0 °F 55% 29.77 in 10.0 mi SW 8.1 mph - N/A   Clear
1:53 AM 75.0 °F - 57.0 °F 53% 29.78 in 10.0 mi WSW 10.4 mph 19.6 mph N/A   Clear
2:53 AM 73.0 °F - 57.0 °F 57% 29.77 in 10.0 mi WSW 12.7 mph 21.9 mph N/A   Clear
3:53 AM 72.0 °F - 57.0 °F 59% 29.76 in 10.0 mi SW 10.4 mph - N/A   Clear
4:53 AM 73.9 °F - 54.0 °F 50% 29.76 in 10.0 mi WSW 13.8 mph 24.2 mph N/A   Clear
5:53 AM 73.9 °F - 53.1 °F 48% 29.77 in 10.0 mi WSW 16.1 mph 28.8 mph N/A   Clear
6:53 AM 73.0 °F - 52.0 °F 48% 29.77 in 10.0 mi WSW 15.0 mph 24.2 mph N/A   Clear
7:53 AM 75.0 °F - 52.0 °F 44% 29.79 in 10.0 mi WSW 15.0 mph 24.2 mph N/A   Clear
8:53 AM 77.0 °F - 53.1 °F 43% 29.81 in 10.0 mi WSW 16.1 mph 27.6 mph N/A   Clear
9:53 AM 79.0 °F - 54.0 °F 42% 29.81 in 10.0 mi West 18.4 mph 28.8 mph N/A   Clear
10:53 AM 82.0 °F 81.2 °F 53.1 °F 37% 29.81 in 10.0 mi West 19.6 mph 31.1 mph N/A   Clear
11:53 AM 82.9 °F 81.8 °F 53.1 °F 36% 29.82 in 10.0 mi West 23.0 mph 31.1 mph N/A   Clear
12:53 PM 84.9 °F 83.3 °F 54.0 °F 34% 29.81 in 10.0 mi WSW 21.9 mph 27.6 mph N/A   Clear
1:53 PM 84.9 °F - 52.0 °F 32% 29.79 in 10.0 mi WSW 19.6 mph - N/A   Clear
2:53 PM 86.0 °F 84.7 °F 55.9 °F 36% 29.78 in 10.0 mi WSW 16.1 mph 23.0 mph N/A   Clear
3:53 PM 88.0 °F 86.7 °F 57.0 °F 35% 29.79 in 10.0 mi WSW 16.1 mph 26.5 mph N/A   Clear
4:53 PM 87.1 °F 85.9 °F 57.0 °F 36% 29.76 in 10.0 mi WSW 11.5 mph 21.9 mph N/A   Clear
5:53 PM 87.1 °F 85.9 °F 57.0 °F 36% 29.77 in 10.0 mi West 17.3 mph 21.9 mph N/A   Clear
6:53 PM 84.0 °F 83.5 °F 57.9 °F 41% 29.78 in 10.0 mi WNW 15.0 mph 20.7 mph N/A   Clear
7:53 PM 82.9 °F 82.8 °F 59.0 °F 44% 29.78 in 10.0 mi West 8.1 mph - N/A   Clear
8:53 PM 80.1 °F 80.9 °F 60.1 °F 50% 29.78 in 10.0 mi WNW 3.5 mph - N/A   Mostly Cloudy
9:53 PM 78.1 °F - 60.1 °F 54% 29.80 in 10.0 mi West 3.5 mph - N/A   Mostly Cloudy
10:53 PM 78.1 °F - 61.0 °F 56% 29.80 in 10.0 mi West 3.5 mph - N/A   Overcast
11:07 PM 77.0 °F - 62.6 °F 61% 29.84 in 2.0 mi NW 8.1 mph - 0.11 in Rain Rain
11:15 PM - - - N/A% 29.84 in 5.0 mi WSW 4.6 mph - 0.12 in Rain Light Rain
11:53 PM - - - N/A% 29.84 in 10.0 mi SW 4.6 mph - 0.12 in   Mostly Cloudy